カタログに戻る

SL-8 R/B

運用中LEO
NORAD 6271·ROCKET BODY·🇷🇺 Russia

打ち上げ Nov 1, 1972 から Plesetsk Cosmodrome

Loading…

次のパス (今後24時間)

TLE

最新Source: Space-Track

元期: Sep 14, 2026, 11:15 UTC

1 06271U 72087J   26257.46892771 -.00000086  00000-0 -56355-3 0  9999
2 06271  74.0377 259.0217 0080602 321.9817 206.3834 12.34558293427628

AllMySatでSL-8 R/Bをリアルタイム追跡

Download on the App Store